Starlink 4108

operational
NORAD ID: 52834 Int'l Des: 2022-062 Owner: SPXS Country: US Constellation: starlink
LEOCIRCULAR

关于 Starlink 4108

正在加载描述...

实时位置

正在加载3D地球...

即将过境

高度历史

Altitude vs Time

uPlot chart will show altitude changes over time

两行轨道根数

1 52834U 22062E 25304.12932762 -.00000191 00000-0 60986-5 0 9996
2 52834 53.2181 255.7397 0001624 87.9920 272.1258 15.08839131186225
Epoch: Oct 31, 2025 • Age: 17 hours

当前状态

高度 558.5 km
速度 7.58 km/s
星下点 -50.91°S, 157.97°W
发射日期 Jun 17, 2022
运行时间 3.3 years
类型 internet

技术详情

分类 Payload
质量 297.00 kg
干质量 275.00 kg
总质量 297.00 kg
长度 0.20 m
直径 2.80 m
跨度 9.00 m
形状 Box + pan
制造商 SPXS
平台类型 Starlink
阶段状态 In Orbit
所有者/国家 SPXS/US

大型星座

Loading constellations...